Location: Chenango Forks
(42.2242°N, 75.8278°W)
Time: 14:33:34
(UTC-04:00)

Daily predictions for brighter satellites

Satellite Brightness Start Highest point End
(mag) Time Altitude Azimuth Time Altitude Azimuth Time Altitude Azimuth
Tsikada Rocket 4.2 20:46:15 10° S 20:52:28 82° W 20:58:40 10° N
Helios 1A 3.5 20:50:24 10° SE 20:54:22 43° ENE 20:58:23 10° N
Cosmos 2221 Rocket 4.3 20:50:49 10° N 20:54:57 36° ENE 20:59:04 10° SE
Cosmos 1825 3.5 20:55:09 10° SE 20:58:09 22° E 21:01:08 10° NE
SJ-11-01 4.3 20:58:44 10° SSE 21:03:25 71° ENE 21:08:08 10° N
Cosmos 1125 Rocket 3.9 20:58:34 10° S 21:03:28 42° ESE 21:08:22 10° NNE
Meteor 2-3 Rocket 3.8 20:57:46 10° S 21:03:29 88° ESE 21:09:10 10° N
Cosmos 1634 Rocket 4.1 20:58:26 10° N 21:04:44 69° E 21:11:01 10° SSE
Cosmos 2344 4.1 21:04:20 10° S 21:11:14 37° ESE 21:18:35 10° NE
USA 186 3.4 21:10:06 10° SSW 21:12:34 30° W 21:15:14 10° NNW
Cosmos 1943 Rocket 2.3 21:09:37 10° S 21:14:59 50° ESE 21:20:21 10° NE
Cosmos 1782 3.2 21:11:16 10° N 21:15:09 46° E 21:18:58 10° SSE
Cosmos 1892 4.0 21:16:37 10° SSW 21:20:18 43° WNW 21:23:59 10° N
deb Kosmos-1763 4.5 21:17:38 10° N 21:21:19 49° ENE 21:24:31 13° SE
Cosmos 158 Rocket 4.0 21:18:26 10° NNW 21:23:16 60° ENE 21:27:46 12° SSE
Resurs 01 Rocket 3.8 21:24:13 10° SSW 21:27:53 25° W 21:31:35 10° NW
Okean 1-7 3.0 21:23:34 10° N 21:28:01 82° E 21:32:24 10° S
DELTA 2 R/B(2) 3.5 21:28:13 10° WSW 21:29:54 36° S 21:30:23 27° SE
SAR-Lupe-4 3.6 21:27:23 11° SSE 21:30:44 67° ENE 21:34:18 10° N
Cosmos 1340 3.1 21:27:54 10° N 21:31:34 45° ENE 21:34:23 16° SSE
NOAA 11 4.3 21:29:43 10° SSE 21:35:03 66° ENE 21:40:30 10° N
Cosmos 2279 Rocket 4.0 21:29:53 10° N 21:36:09 71° E 21:42:21 10° SSE
Cosmos 2263 4.3 21:31:01 10° SSW 21:36:47 87° WNW 21:42:33 10° NNE
Cosmos 1862 3.9 21:33:56 13° SSE 21:37:09 38° E 21:40:50 10° NNE
Meteor 1-29 3.0 21:37:03 10° NNE 21:40:34 86° W 21:44:02 10° SSW
YAOGAN 6 3.3 21:38:03 10° S 21:41:41 53° W 21:45:18 10° NNW
H-2A R/B 3.0 21:40:00 16° SE 21:43:37 35° ENE 21:48:24 10° N
CZ-4B DEB 3.1 21:41:28 12° S 21:44:07 55° W 21:47:00 10° NNW
Cosmos 2369 Rocket 3.0 21:38:46 10° SW 21:44:18 55° WNW 21:49:55 10° NNE
Terra 3.7 21:42:01 12° E 21:44:27 16° ENE 21:47:20 10° NNE
ISS -1.8 21:41:48 10° W 21:44:43 30° NNW 21:47:39 10° NE
Tiangong 2 3.7 21:44:42 10° SW 21:45:35 11° SW 21:46:28 10° SSW
Helios 1B rocket 3.0 21:43:46 10° N 21:47:50 59° WNW 21:51:51 10° SSW
ERS-1 Rocket 2.9 21:43:42 13° SSE 21:48:16 84° ENE 21:53:20 10° NNW
SAR-Lupe-1 4.1 21:49:32 16° S 21:52:19 76° WSW 21:55:54 10° NNW
Cosmos 1606 3.0 21:49:36 10° NNW 21:53:22 63° W 21:56:42 13° S
GPS 2-04 Rocket1 4.0 21:51:43 10° WSW 21:54:33 20° SSW 21:55:27 19° S
DNEPR-1 R/B 4.2 21:49:57 10° SW 21:55:05 65° NW 21:59:32 10° NNE
Cosmos 1833 4.2 21:49:36 10° NNW 21:55:25 81° ENE 21:59:29 20° SSE
Lacrosse 4 Rocket 1.5 21:52:26 10° NNW 21:56:58 83° WSW 21:59:44 23° SSE
MetOp-B 4.1 21:53:50 16° SSE 21:58:10 84° ENE 22:03:33 10° NNW
USA 215 3.4 21:53:28 17° ESE 21:58:39 69° NE 22:05:10 10° NW
H-2A ROCKET BODY 3.9 21:56:08 10° SSW 21:58:42 15° SSE 21:58:45 15° SSE
Cosmos 1733 Rocket 3.2 21:56:23 19° SSE 21:59:18 53° E 22:03:32 10° NNE
Aureole 3 4.4 21:56:56 10° SW 21:59:41 32° WNW 22:02:27 10° N
ATLAS 5 CENTAUR R/B 2.5 21:53:56 10° NW 21:59:57 75° WSW 22:04:39 20° SSE
Cosmos 2297 Rocket 4.4 22:00:10 10° NNE 22:02:36 13° NE 22:05:02 10° ENE
Cosmos 1048 Rocket 4.4 21:58:11 10° NNW 22:03:26 61° WSW 22:07:37 16° S
Milstar 3 4.1 21:53:29 10° WSW 22:03:41 32° S 22:07:43 21° SE
ATLAS CENTAUR R/B 2.2 22:05:12 27° ESE 22:05:12 27° ESE 22:08:18 10° ENE
Cosmos 1437 3.7 22:05:55 10° NNE 22:08:48 30° ENE 22:09:07 29° E
Cosmos 1656 Rocket 3.6 22:04:07 10° S 22:09:28 63° ESE 22:14:56 10° NNE
Cosmos 1408 4.0 22:06:01 10° SSW 22:09:31 39° WNW 22:13:04 10° N
SPOT 5 3.1 22:06:18 22° SSE 22:09:50 76° ENE 22:15:07 10° N
ARGOS 3.1 22:10:08 20° SSE 22:13:55 86° WSW 22:19:18 10° NNW
Alouette 2 Rocket 4.4 22:07:18 10° S 22:14:59 73° E 22:19:54 10° NNE
Lacrosse 5 rocket 3.7 22:13:16 10° W 22:16:09 22° NNW 22:19:07 10° NNE
Sich 1 Rocket 4.3 22:18:37 32° ESE 22:19:30 35° E 22:23:31 10° NNE
CENTAUR R/B 3.4 22:14:04 10° SW 22:20:01 54° NW 22:26:51 10° NNE
Cosmos 1346 3.9 22:20:50 10° N 22:22:51 32° NE 22:22:51 32° NE
Cosmos 1975 Rocket 4.4 22:21:09 10° NNE 22:24:48 24° ENE 22:25:33 23° E
Meteor 1-27 Rocket 4.1 22:21:52 10° NNW 22:27:32 63° W 22:31:31 19° S
Cosmos 2251 Rocket 3.5 22:27:14 10° NNW 22:32:28 67° ENE 22:34:28 37° SE
Cosmos 2026 Rocket 4.5 22:30:33 31° SE 22:32:46 42° E 22:38:35 10° NNE
CARTOSAT-1 4.1 22:33:14 38° ESE 22:34:11 44° ENE 22:38:18 10° N
SL-08 RB Rocket 4.1 22:33:00 28° S 22:35:24 63° W 22:40:02 10° NNW
Cosmos 1378 Rocket 3.8 22:31:38 10° N 22:36:01 56° E 22:37:01 44° SE
Cosmos 1674 Rocket 3.5 22:32:02 10° N 22:36:22 79° W 22:37:55 39° S
DMSP B5D2-2 4.0 22:36:15 10° NNE 22:41:29 69° ESE 22:43:39 35° S
SPOT 1/Viking Rocket 3.6 22:39:33 32° S 22:42:01 74° WSW 22:47:15 10° NNW
Okean 3 3.3 22:38:56 10° N 22:43:08 75° E 22:43:55 56° SSE
IGS 5A 3.7 22:43:48 48° ESE 22:44:23 53° ENE 22:48:26 10° N
H-2A R/B 2.6 22:50:34 38° E 22:50:51 39° ENE 22:54:42 10° N
Meteor 1-25 Rocket 4.5 22:50:55 41° SE 22:52:29 53° E 22:58:08 10° NNE
Cosmos 2227 Rocket 3.3 22:48:19 10° N 22:53:22 32° NE 22:55:17 26° E
Cosmos 1943 Rocket 4.3 22:54:24 10° WSW 22:58:59 26° NW 23:03:35 10° N
Cosmos 1092 Rocket 4.1 22:56:29 23° SSW 23:00:26 72° W 23:06:35 10° N
Cosmos 2219 3.2 22:56:31 10° NNW 23:02:18 81° WSW 23:04:04 47° SSE
Landsat 7 4.1 23:05:14 43° SSW 23:06:31 59° W 23:11:14 10° NNW
GEOS 3 Rocket 3.7 23:05:52 48° ESE 23:07:15 71° NE 23:12:29 10° NNW
Cosmos 1812 2.7 23:04:04 10° N 23:07:47 79° NNE 23:07:47 79° NNE
Cosmos 1627 Rocket 4.4 23:07:56 37° S 23:10:38 89° W 23:17:01 10° N
Cosmos 1908 Rocket 4.2 23:12:38 37° SW 23:14:00 53° W 23:18:22 10° N
Cosmos 1553 Rocket 4.2 23:09:02 10° N 23:15:19 58° E 23:16:48 47° SE
Meteor 1-14 Rocket 4.3 23:13:13 37° SSW 23:15:42 78° W 23:21:31 10° N
Cosmos 2369 4.3 23:20:17 39° E 23:20:17 39° E 23:25:07 10° NE
Cosmos 1867 4.3 23:14:58 10° NW 23:20:04 41° WSW 23:21:08 37° SW
Terra 2.1 23:20:55 52° SW 23:21:41 60° W 23:26:24 10° NNW
ISS -0.8 23:19:53 10° NW 23:21:57 16° N 23:24:02 10° NE
H-2A R/B 3.5 23:20:37 22° SW 23:23:00 31° W 23:27:43 10° NW
CZ-4B R/B 3.6 23:18:41 10° NNE 23:23:15 52° E 23:23:15 52° E
Okean 2 Rocket 3.0 23:29:03 82° NNE 23:29:03 82° NNE 23:33:20 10° N
Cosmos 405 Rocket 3.4 23:26:57 10° NNW 23:29:59 50° NW 23:29:59 50° NW
APEX 3.8 23:29:01 10° NNW 23:32:37 55° N 23:32:37 55° N
Meteor 1-11 Rocket 4.4 23:33:20 40° E 23:33:31 41° E 23:39:02 10° NNE
Gbstr 26 Del rocket 3.2 23:31:05 10° NW 23:35:02 59° N 23:35:02 59° N
deb Chang Zheng 4 3.6 23:35:09 10° N 23:39:30 78° NW 23:39:30 78° NW
DELTA 2 DEB (DPAF) 4.2 23:40:35 74° NNE 23:40:35 74° NNE 23:44:47 10° N
Cosmos 1782 Rocket 4.3 23:41:10 43° W 23:41:40 45° WNW 23:45:53 10° N
USA 215 4.0 23:40:49 34° SSW 23:41:54 35° SW 23:47:51 10° WNW
CZ-4C R/B 3.8 23:43:49 62° NNE 23:43:49 62° NNE 23:47:19 10° N
ATLAS CENTAUR R/B 3.1 23:41:20 15° W 23:43:53 28° NW 23:47:15 10° NNE
Cosmos 1697 Rocket 3.8 23:45:10 29° E 23:45:10 29° E 23:48:54 10° NE
Cosmos 2266 Rocket 4.1 23:44:11 51° ESE 23:44:41 53° E 23:50:36 10° NNE
CZ-2C R/B 3.6 23:45:38 43° ENE 23:45:45 43° ENE 23:50:22 10° N
Okean 1 4.0 23:42:41 10° NNW 23:45:55 52° NW 23:45:55 52° NW
Cosmos 2297 Rocket 2.2 23:42:06 10° NNW 23:47:46 68° ENE 23:48:21 63° ESE
BREEZE-M DEB (TANK) 4.4 23:29:53 10° WNW 23:49:15 74° SSW 23:50:53 54° SSE
Cosmos 1441 Rocket 4.4 23:50:13 10° NNW 23:53:01 39° NW 23:53:01 39° NW
ARGOS Delta rocket 3.9 23:50:30 10° N 23:54:43 64° WNW 23:54:43 64° WNW
